Date String (YYYY-MM-DD hh:mm:ss) UTC,Instrument flags,Ambient pressure (hPa),Sample flow (lpm),Bypass flow (lpm),Sample temperature (°C),Ambient temperature (°C),ASC tube jacket temperature (°C),LED temperature (°C),Box temperature (°C),Sample RH (%),Span deviation,Mass concentration (μg/m³),Mass concentration (μg/m³),Mass concentration (μg/m³)
DateTimeUTC,F1_M11,P_M11,Q1_M11,Q2_M11,T1_M11,T2_M11,T3_M11,T4_M11,T5_M11,U1_M11,ZSPAN_M11,X0_M11,X2_M11,X1_M11
2023-01-20 07:00:00,,0825.4,5.01,0.00,22.6,21.1,00.0,31.4,24.3,09.1,0001.3,0016.58,0010.63,0010.02
2023-01-20 07:01:00,,0825.3,5.00,0.00,22.6,21.0,00.0,31.4,24.3,09.2,0001.0,0017.42,0010.77,0010.16
2023-01-20 07:02:00,,0825.4,5.01,0.00,22.6,21.0,00.0,31.4,24.3,09.2,0000.3,0017.91,0010.95,0010.32
2023-01-20 07:03:00,,0825.4,5.02,0.00,22.6,21.2,00.0,31.4,24.3,09.2,0000.7,0017.53,0011.07,0010.46
2023-01-20 07:04:00,,0825.4,5.00,0.00,22.6,22.0,00.0,31.4,24.5,09.1,0001.2,0017.59,0011.19,0010.57
2023-01-20 07:05:00,,0825.4,5.00,0.00,22.7,22.9,00.0,31.4,24.7,09.1,0001.7,0018.38,0011.29,0010.67
2023-01-20 07:06:00,,0825.5,5.00,0.00,22.8,22.9,00.0,31.4,24.8,09.0,0002.2,0018.35,0011.37,0010.76
2023-01-20 07:07:00,,0825.4,4.99,0.00,22.8,22.6,00.0,31.5,24.8,09.0,0002.3,0018.52,0011.43,0010.84
2023-01-20 07:08:00,,0825.4,5.00,0.00,22.9,22.2,00.0,31.5,24.7,09.0,0002.2,0018.69,0011.45,0010.85
2023-01-20 07:09:00,,0825.4,5.00,0.00,22.8,21.9,00.0,31.5,24.7,09.0,0000.0,0018.74,0011.48,0010.85
2023-01-20 07:10:00,,0825.4,4.99,0.00,22.8,21.7,00.0,31.5,24.6,09.0,0000.0,0018.93,0011.54,0010.86
2023-01-20 07:11:00,,0825.4,5.01,0.00,22.8,21.6,00.0,31.5,24.6,09.0,0000.0,0018.47,0011.55,0010.85
2023-01-20 07:12:00,,0825.4,5.00,0.00,22.8,21.4,00.0,31.5,24.6,08.9,0000.0,0017.68,0011.53,0010.84
2023-01-20 07:13:00,,0825.4,4.98,0.00,22.8,21.4,00.0,31.5,24.6,08.9,0000.0,0017.32,0011.44,0010.77
2023-01-20 07:14:00,,0825.4,4.99,0.00,22.8,21.4,00.0,31.5,24.5,08.9,0000.0,0017.31,0011.40,0010.75
2023-01-20 07:15:00,,0825.4,5.00,0.00,22.8,21.3,00.0,31.5,24.5,08.9,0000.0,0017.76,0011.39,0010.73
2023-01-20 07:16:00,,0825.4,5.00,0.00,22.7,21.3,00.0,31.5,24.5,08.9,0000.0,0017.17,0011.41,0010.68
2023-01-20 07:17:00,,0825.4,5.00,0.00,22.7,21.3,00.0,31.5,24.5,08.9,0000.0,0017.37,0011.42,0010.66
2023-01-20 07:18:00,,0825.4,5.00,0.00,22.7,21.2,00.0,31.5,24.5,08.9,0000.0,0017.16,0011.39,0010.63
2023-01-20 07:19:00,,0825.4,5.01,0.00,22.7,21.1,00.0,31.5,24.5,08.8,0000.0,0016.96,0011.35,0010.60
2023-01-20 07:20:00,,0825.3,5.01,0.00,22.7,21.2,00.0,31.5,24.4,08.8,0000.0,0016.88,0011.32,0010.56
2023-01-20 07:21:00,,0825.3,4.99,0.00,22.7,21.2,00.0,31.5,24.4,08.8,0000.0,0016.82,0011.28,0010.51
2023-01-20 07:22:00,,0825.4,5.00,0.00,22.7,21.2,00.0,31.5,24.4,08.8,0001.3,0017.19,0011.22,0010.46
2023-01-20 07:23:00,,0825.4,4.99,0.00,22.7,21.2,00.0,31.5,24.4,08.8,0000.0,0017.30,0011.18,0010.43
2023-01-20 07:24:00,,0825.4,5.01,0.00,22.6,21.1,00.0,31.5,24.4,08.8,0000.0,0017.40,0011.21,0010.41
2023-01-20 07:25:00,,0825.4,5.00,0.00,22.6,21.1,00.0,31.4,24.4,08.8,0000.0,0017.52,0011.18,0010.36
2023-01-20 07:26:00,,0825.4,4.99,0.00,22.6,21.0,00.0,31.4,24.3,08.8,0000.0,0017.48,0011.16,0010.32
2023-01-20 07:27:00,,0825.4,5.01,0.00,22.6,21.0,00.0,31.4,24.3,08.9,0000.0,0017.55,0011.12,0010.30
2023-01-20 07:28:00,,0825.4,5.01,0.00,22.6,21.6,00.0,31.4,24.4,08.9,0000.0,0018.13,0011.09,0010.26
2023-01-20 07:29:00,,0825.4,5.01,0.00,22.7,22.4,00.0,31.4,24.7,08.8,0000.0,0018.21,0011.11,0010.24
2023-01-20 07:30:00,,0825.5,5.01,0.00,22.8,23.0,00.0,31.4,24.8,08.8,0000.4,0018.16,0011.09,0010.24
2023-01-20 07:31:00,,0825.5,4.98,0.00,22.9,22.7,00.0,31.5,24.8,08.8,0001.9,0018.25,0011.12,0010.25
2023-01-20 07:32:00,,0825.5,5.00,0.00,22.9,22.3,00.0,31.5,24.7,08.8,0000.9,0018.68,0011.19,0010.28
2023-01-20 07:33:00,,0825.4,5.01,0.00,22.8,22.0,00.0,31.5,24.7,08.8,0002.1,0018.64,0011.29,0010.35
2023-01-20 07:34:00,,0825.4,5.00,0.00,22.8,21.7,00.0,31.5,24.6,08.8,0001.5,0018.54,0011.36,0010.41
2023-01-20 07:35:00,,0825.5,5.01,0.00,22.8,21.6,00.0,31.5,24.6,08.8,0003.1,0018.54,0011.40,0010.47
2023-01-20 07:36:00,,0825.4,5.00,0.00,22.8,21.4,00.0,31.5,24.6,08.9,0003.4,0018.35,0011.46,0010.54
2023-01-20 07:37:00,,0825.4,4.99,0.00,22.8,21.3,00.0,31.5,24.5,08.9,0003.4,0018.19,0011.53,0010.60
2023-01-20 07:38:00,,0825.4,4.97,0.00,22.8,21.3,00.0,31.5,24.5,08.9,0000.1,0018.23,0011.65,0010.70
2023-01-20 07:39:00,,0825.4,5.03,0.00,22.7,21.2,00.0,31.5,24.5,08.9,0003.1,0017.87,0011.73,0010.77
2023-01-20 07:40:00,,0825.4,4.98,0.00,22.7,21.2,00.0,31.5,24.5,08.9,0003.4,0017.65,0011.75,0010.82
2023-01-20 07:41:00,,0825.4,4.99,0.00,22.7,21.2,00.0,31.5,24.4,08.8,0001.5,0017.64,0011.78,0010.84
2023-01-20 07:42:00,,0825.3,5.01,0.00,22.7,21.2,00.0,31.5,24.4,08.9,0000.1,0017.74,0011.84,0010.89
2023-01-20 07:43:00,,0825.4,4.99,0.00,22.7,21.2,00.0,31.5,24.4,08.9,0003.5,0017.51,0011.80,0010.90
2023-01-20 07:44:00,,0825.4,5.01,0.00,22.7,21.2,00.0,31.5,24.4,08.9,0003.4,0017.14,0011.76,0010.90
2023-01-20 07:45:00,,0825.4,5.00,0.00,22.7,21.2,00.0,31.5,24.4,08.8,0004.2,0016.95,0011.71,0010.87
2023-01-20 07:46:00,,0825.4,4.98,0.00,22.6,21.2,00.0,31.5,24.4,08.8,0003.9,0017.38,0011.69,0010.84
2023-01-20 07:47:00,,0825.4,5.01,0.00,22.6,21.1,00.0,31.5,24.4,08.8,0000.6,0017.49,0011.64,0010.81
2023-01-20 07:48:00,,0825.4,5.00,0.00,22.6,21.1,00.0,31.4,24.4,08.8,0000.6,0017.30,0011.61,0010.80
2023-01-20 07:49:00,,0825.4,4.99,0.00,22.6,21.0,00.0,31.4,24.3,08.8,0003.4,0016.98,0011.52,0010.77
2023-01-20 07:50:00,,0825.4,5.01,0.00,22.6,21.3,00.0,31.4,24.4,08.8,0003.4,0016.96,0011.48,0010.75
2023-01-20 07:51:00,,0825.5,4.99,0.00,22.7,22.2,00.0,31.4,24.6,08.8,0003.8,0017.38,0011.48,0010.75
2023-01-20 07:52:00,,0825.4,5.01,0.00,22.8,23.0,00.0,31.4,24.8,08.8,0003.8,0017.69,0011.50,0010.76
2023-01-20 07:53:00,,0825.5,4.99,0.00,22.9,23.0,00.0,31.5,24.9,08.7,0003.7,0017.63,0011.45,0010.75
2023-01-20 07:54:00,,0825.5,4.98,0.00,22.9,22.6,00.0,31.5,24.8,08.7,0002.0,0017.57,0011.41,0010.75
2023-01-20 07:55:00,,0825.5,5.03,0.00,22.9,22.3,00.0,31.5,24.8,08.7,0000.0,0017.53,0011.41,0010.76
2023-01-20 07:56:00,,0825.5,5.00,0.00,22.9,22.0,00.0,31.5,24.7,08.7,0000.0,0017.48,0011.41,0010.79
2023-01-20 07:57:00,,0825.4,5.00,0.00,22.9,21.8,00.0,31.5,24.7,08.7,0001.2,0016.92,0011.41,0010.81
2023-01-20 07:58:00,,0825.5,4.99,0.00,22.8,21.6,00.0,31.5,24.6,08.7,0003.2,0016.92,0011.46,0010.84
2023-01-20 07:59:00,,0825.5,5.00,0.00,22.8,21.5,00.0,31.6,24.6,08.7,0002.8,0017.24,0011.45,0010.85
